Regional Weather Roundup
Issued by NWS Jackson, KY

Home | Current Version | Previous Version | Graphics & Text | Print | Product List | Glossary On
Versions: 1 2 3 4 5 6 7 8 9 10 11 12 13 14 15 16 17 18 19 20 21 22 23 24 25 26 27 28 29 30 31 32 33 34 35 36 37 38 39 40 41 42 43 44 45 46 47 48 49 50
000
ASUS43 KJKL 021610
RWRJKL

EAST KENTUCKY HOURLY WEATHER ROUNDUP
NATIONAL WEATHER SERVICE JACKSON KY
1200 PM EDT WED SEP 02 2015

NOTE: "FAIR" INDICATES FEW OR NO CLOUDS BELOW 12,000 FEET WITH
NO SIGNIFICANT WEATHER AND/OR OBSTRUCTIONS TO VISIBILITY.

* THESE REPORTS ARE NOT UNDER NWS QUALITY CONTROL AND MAY NOT
  REPORT WEATHER SUCH AS PRECIPITATION AND FOG.

KYZ079-080-083-085-087-088-110-112-115-119-120-021700
...EASTERN KENTUCKY...

CITY           SKY/WX    TMP DP  RH WIND       PRES   REMARKS
JACKSON        SUNNY     81  66  60 CALM      30.17F
LONDON         MOSUNNY   85  63  47 NE5       30.17S
SOMERSET*      SUNNY     81  64  57 CALM      30.17S
MONTICELLO*    PTSUNNY   85  70  60 CALM      30.18F
WILLIAMSBURG*  SUNNY     81  68  65 CALM      30.17
MIDDLESBORO*   MOSUNNY   80  70  71 CALM      30.16F
HARLAN APT*      N/A     82  66  57 MISG      30.17F
HAZARD APT*    SUNNY     82  66  57 N3        30.16F
BLACK MTN*       N/A     72  64  78 CALM        N/A
PIKEVILLE APT* SUNNY     81  70  69 CALM      30.18S
BIG SANDY*     SUNNY     83  67  59 CALM      30.16F
MOREHEAD APT*  SUNNY     84  66  54 CALM      30.17F
$$

KYZ035-036-041-042-044-050-067-078-099-021700
...CENTRAL KENTUCKY...

CITY           SKY/WX    TMP DP  RH WIND       PRES   REMARKS
MT STERLING*   MOSUNNY   84  70  61 W3        30.17F
FLEMING/MASON* SUNNY     82  68  61 W7        30.16F
DANVILLE*      SUNNY     84  64  51 CALM      30.17F
RICHMOND*      SUNNY     82  64  54 N3        30.15F
LEXINGTON      SUNNY     83  66  56 VRB3      30.16S
FRANKFORT      SUNNY     85  66  53 NW5       30.15S
$$

KYZ091>093-OHZ055-061-077-WVZ005-015-034-035-042-021700
...SOUTHERN OHIO/WEST VIRGINIA...

CITY           SKY/WX    TMP DP  RH WIND       PRES   REMARKS
COVINGTON      MOSUNNY   84  69  60 W6        30.15S
COLUMBUS       PTSUNNY   81  68  64 SW10      30.13S
DAYTON         PTSUNNY   83  71  67 W7        30.14F
WILMINGTON     MOSUNNY   80  69  69 W7        30.14S
HUNTINGTON     MOSUNNY   86  68  54 CALM      30.13F
CHARLESTON     MOSUNNY   83  67  58 CALM      30.13F
PINEVILLE*     SUNNY     83  70  62 MISG      30.22F
BECKLEY        MOSUNNY   80  64  58 N8        30.21F
BLUEFIELD      PTSUNNY   82  62  50 VRB5      30.23F
$$

VAZ002-007-008-TNZ017-027-036-066-071-021700
...SOUTHWEST VIRGINIA/EAST TENNESSEE...

CITY           SKY/WX    TMP DP  RH WIND       PRES   REMARKS
WISE*          MOSUNNY   81  61  50 NE6       30.24F
JONESVILLE*    SUNNY     82  66  57 CALM      30.19S
ABINGDON*      SUNNY     82  63  52 CALM      30.19F
BRISTOL        MOSUNNY   82  67  60 CALM      30.17F
KNOXVILLE      PTSUNNY   83  69  62 CALM      30.13F
OAK RIDGE      SUNNY     85  69  58 CALM      30.15F
CROSSVILLE     SUNNY     82  65  56 VRB3      30.20S
NASHVILLE      PTSUNNY   86  65  49 E5        30.13F
$$

...KEY TO REMARKS...
VSB - VISIBILITY IN MILES
WCI - WIND CHILL INDEX
HX  - HEAT INDEX

$$


USA.gov is the U.S. government's official web portal to all federal, state and local government web resources and services.